Погода в Эмалахлени

ЮАР     25°52′23″S   29°12′39″E
темп.,
°C
ветер,
м/с
пор.,
м/с
влажн.,
%
обл.,
%
осадки,
мм/ч
давл.,
гПа
погр.,
м
22 октября, пт
пт2223:00+19с5928100 0.0 1017411
02:00+18с61135100 0.0 1015527
05:00+16св2343100 0.0 101561
08:00+18ссз7938100 0.0 1017920
11:00+22сз693268 0.1 10151590
14:00+25ссз912260 0.1 10112285
17:00+24ссз81029100 0.0 10091911
20:00+20св224191 0.0 101136
23 октября, сб
сб2323:00+19зсз11425 0.0 101212
02:00+17зюз11460 0.0 101111
05:00+16с12520 0.0 101211
08:00+23ссз46300 0.0 1012593
11:00+28сз1013220 0.0 10102543
14:00+32з1113154 0.0 10063549
17:00+31з1012144 0.0 10053674
20:00+25зюз35152 0.0 100884
24 октября, вс
вс2423:00+22ююз48124 0.0 1011152
02:00+18ю46195 0.0 1013117
05:00+16ююв7113840 0.0 1015321
08:00+19вюв8953100 0.0 1016572
11:00+28с771519 0.0 10142093
14:00+29с9111916 0.0 10113339
17:00+25с13113345 0.0 10121649
20:00+14в912653 1.1 1020415
25 октября, пн
пн2523:00+12вюв89720 0.0 1022380
02:00+11вюв78772 0.0 1022349
05:00+11в44794 0.0 1023211
08:00+15св45635 0.2 1024646
11:00+22с78467 0.0 10191196
14:00+25ссз993928 0.0 10161849
17:00+21с1094726 0.0 10161423
20:00+17с81165100 0.1 1020894
26 октября, вт
вт2623:00+14с71084100 0.1 1022542
02:00+14ссв238558 0.4 1020325
05:00+13с478922 0.1 1020316
08:00+15ссз3476100 0.1 1022772
11:00+20с455490 0.0 10201378
14:00+23ссз5643100 0.0 10162018
17:00+23сз3443100 0.1 10161499
20:00+20всв2357100 0.6 1018137